Regional Weather Roundup
Issued by NWS Sterling, VA

Home | Current Version | Previous Version | Graphics & Text | Print | Product List | Glossary On
Versions: 1 2 3 4 5 6 7 8 9 10 11 12 13 14 15 16 17 18 19 20 21 22 23 24 25 26 27 28 29 30 31 32 33 34 35 36 37 38 39 40 41 42 43 44 45 46 47 48 49 50
000
ASUS41 KLWX 310510
RWRLWX

REGIONAL WEATHER ROUNDUP
NATIONAL WEATHER SERVICE BALTIMORE MD/WASHINGTON DC
1200 AM EST SAT JAN 31 2015

Note: "FAIR" indicates few or no clouds below 12,000 feet
with no significant weather and/or obstructions to visibility.
 TC=TEMPERATURE CELSIUS

 * =Non NWS site. Station does not report precipitation (e.g. rain,
    snow, etc.), thunder, or fog.

DCZ001-MDZ009-015-VAZ040>042-051-053>054-310600-
WASHINGTON METRO

CITY           SKY/WX    TMP DP  RH WIND       PRES   REMARKS
WASHINGTON NAT CLEAR     23   3  42 NW15G25   30.28R WCI  10
DULLES         CLEAR     19   3  49 NW17G26   30.28R WCI   4
ANDREWS AFB    CLEAR     21   4  48 NW23G36   30.23R WCI   4
FT BELVOIR     CLEAR     21   4  47 NW16G24   30.29R WCI   7
QUANTICO       CLEAR     23   4  44 N22G35    30.30S WCI   8
COLLEGE PARK*  CLEAR     23   7  50 NW12G26   30.26R WCI  12
LEESBURG*      CLEAR     21   9  58 NW10G21   30.28S WCI  10
MANASSAS*      CLEAR     21   9  58 NW18G26   30.28S WCI   6
GAITHERSBURG*  CLEAR     18   3  53 NW17G28   30.27R WCI   2

$$

MDZ006>007-011-014-310600-
BALTIMORE METRO

CITY           SKY/WX    TMP DP  RH WIND       PRES   REMARKS
BWI AIRPORT    CLEAR     20   1  43 NW18G30   30.23R WCI   5
MD SCIENCE CTR   N/A     21   1  41 MISG      30.24R
MARTIN STATE   CLEAR     23   9  54 W17G30    30.24R WCI   9
ANNAPOLIS      FAIR      23   6  48 NW18G28   30.22R WCI   9
FORT MEADE*    CLEAR     21   7  53 NW20G28   30.26S WCI   6

$$

MDZ012-015-019>023-310600-
MARYLAND EASTERN SHORE

CITY           SKY/WX    TMP DP  RH WIND       PRES   REMARKS
OCEAN CITY     FAIR      24   9  52 NW17G26   30.14R WCI  11
SALISBURY      CLEAR     26   7  44 NW18G35   30.17R WCI  13
BAY BRIDGE AP*   N/A     23   5  46 NW28G35   30.23R WCI   6
CAMBRIDGE*     CLEAR     27   9  46 NW21G33   30.20R WCI  13
EASTON*        CLEAR     25   9  50 NW21G37   30.24R WCI  10

$$

MDZ017>025-310600-
SOUTHERN MARYLAND

CITY           SKY/WX    TMP DP  RH WIND       PRES   REMARKS
PATUXENT RIVER FAIR      24   7  48 NW22G38   30.22R WCI   9
ST INIGOES     CLEAR     23   5  46 W16G28    30.23R WCI  10
LEONARDTOWN*   CLEAR     23   5  46 W15G22    30.24S WCI  10

$$

MDZ003>005-310600-
NORTH CENTRAL MARYLAND

CITY           SKY/WX    TMP DP  RH WIND       PRES   REMARKS
FREDERICK*     CLEAR     21   3  45 NW9       30.30S WCI  11
HAGERSTOWN APT CLEAR     17   3  54 NW20      30.25S WCI   1
WESTMINSTER*   PTCLDY    16   3  57 NW14G21   30.20S WCI   1

$$

MDZ501>502-310600-
WESTERN MARYLAND

CITY           SKY/WX    TMP DP  RH WIND       PRES   REMARKS
OAKLAND*       CLOUDY     5 N/A N/A W9G17     30.17S WCI  -9
CUMBERLAND*    MOCLDY    18   3  53 W7        30.38F

$$

VAZ025>031-310600-
SHENANDOAH VALLEY

CITY           SKY/WX    TMP DP  RH WIND       PRES   REMARKS
WINCHESTER*    CLEAR     19   3  49 NW15G24   30.28S WCI   5
FRONT ROYAL*   FAIR      21   5  49 N7        30.27S
LURAY*         FAIR      23   7  50 SW7       30.27R
NEW MARKET*    FAIR      20   5  52 W3        30.27S
STAUNTON*      CLEAR     20   6  56 NW3       30.27S
WAYNESBORO*    FAIR      20   3  48 NW6       30.23F

$$

WVZ021-048>050-054>055-310600-
EASTERN WEST VIRGINIA PANHANDLE

CITY           SKY/WX    TMP DP  RH WIND       PRES   REMARKS
MARTINSBURG    CLEAR     19   3  49 NW18G29   30.30S WCI   4
PETERSBURG*    PTCLDY    20   3  48 N9        30.33F WCI   9

$$

VAZ036>039-050-310600-
CENTRAL FOOTHILLS

CITY           SKY/WX    TMP DP  RH WIND       PRES   REMARKS
CHARLOTTESVILL CLEAR     24   5  44 NW7       30.26R
CULPEPER*      CLEAR     21   9  58 N3        30.28R
ORANGE*        CLEAR     25   9  50 W5        30.28R
GORDONSVILLE*  FAIR      24   5  44 W3        30.26R
WARRENTON*     FAIR      22  12  64 NW14      30.27F WCI  10

$$

VAZ055>057-310600-
NORTH AND CENTRAL PIEDMONT

CITY           SKY/WX    TMP DP  RH WIND       PRES   REMARKS
FREDERICKSBRG* CLEAR     25   6  45 NW9G25    30.28R WCI  15
STAFFORD*      CLEAR     22   4  47 NW10G18   30.32S WCI  11

$$

NCZ024-NYZ072-PAZ021-071-VAZ022-071-310600-
OTHER REGIONAL OBSERVATIONS

CITY           SKY/WX    TMP DP  RH WIND       PRES   REMARKS
NEW YORK CITY  CLEAR     19   3  49 NW17G29   30.03R WCI   4
PHILADELPHIA   CLEAR     20   0  41 NW30G41   30.16R WCI   1
PITTSBURGH     CLEAR      9   3  77 W5        30.37S
ROANOKE        FAIR      24   7  48 W13G24    30.31S WCI  12
RICHMOND       CLEAR     26   9  48 N7        30.27R
RALEIGH        PTCLDY    29   7  39 NW3       30.32R

$$

ANZ530>537-310600-
MARINE OBSERVATIONS

STATION/POSITION TIME  TEMP    WIND        PRES
                       AIR SEA DIR/SP/G
                 (UTC) (F)     (DEG/KT/KT) (MB)
THOMAS PT LIGHT  0500   23 35  310/ 21/ 24 1024.2R
BALT KEY BRIDGE  0500   22     290/ 25/ 29 1023.3R
COVE POINT       0500   22     330/ 18/ 26 1023.0S
LEWISETTA        0500   24 35  330/ 17/ 25 1024.1R
SOLOMONS ISLAND  0500      37                N/A
PINEY POINT      0500          340/ 27/ 31   N/A

$$



USA.gov is the U.S. government's official web portal to all federal, state and local government web resources and services.